cliquez pour ajouter le site Runraid à vos favoris  English version (google)  Retour à l'accueil Ecrire à l'auteur du site Runraid : Michel Jourdan



Les prochaines courses


Les derniers résultats

cliquez pour visualiser la page complète relatant la chronologie des éruptions du Piton de la Fournaise
éruptions Piton de la Fournaise


Ile de La Réunion

 Diagonale des Fous 

Ecrire au créateur du site : Michel Jourdan
Contact


2017-05-26 - Vertical Race Annecy

Pour consulter le palmarès d'un coureur, un clic sur son nom !

Vous avez des remarques, corrections, ... sur ces résultats , un clic sur --> pour me transmettre toute information concernant les classements


Vertical Race Annecy - 2017 : classement des 111 finishers
Place Nom Temps Cat. Club Sexe Clt/cat.
Place Nom Temps Cat. Club Sexe Clt/cat.
1 DE MISCAULT Jean Baptiste 00:36:39 SEM Espace Montagne Epagny M 8091
2 FIERS Alban 00:37:31 SEM M 8029
3 BREUIL Thierry 00:37:37 V1M KM19 BRANCEILLES M 1 V1M 8002
4 DUHAIL Jonathan 00:37:48 SEM TEAM OUTDOOR POLI M 3 SEM 8001
5 GUDEFIN Yann 00:38:08 SEM M 8020
6 TERIBAT Fabien 00:39:12 V1M MCV ITGA SO Shop.com M 2 V1M 8017
7 GACHET Gregory 00:39:40 V1M CMSAB M 3 V1M 8119
8 ROBIN Olivier 00:39:43 V1M Chartres Vertical M 8010
9 GRENOT Maxime 00:40:30 SEM Athletic Vosges entente C M 8005
10 MATEO Bastien 00:40:49 ESM ASA Belley M 1 ESM 8026
11 PARDIN Jessica 00:41:00 SEF Jessica PARDIN F 1ere F 8009
12 MAHINC Gregory 00:41:05 SEM TEAM MONTS DU LYONNAIS M 8008
13 GORGEOT Yann 00:41:49 SEM Yann GORGEOT M 8019
14 JOLYON Bertrand 00:42:00 SEM Saone Mont d'Or Nature M 8014
15 REMILLIEUX Julien 00:42:11 SEM M 8011
16 LARONCE Alexandre 00:42:25 SEM CAF FAVERGES M 8094
17 DETHOREY Arnaud 00:42:29 SEM TEAM OUTDOOR POLI M 8018
17 BESCOND Benjamin 00:42:29 SEM Dominicaine Athletisme M 8130
19 FORESTIER Sylvain 00:42:44 SEM Dassault Montagne M 8023
20 MOUGIN Jean Charles 00:42:51 SEM PFEIFFER M 8054
21 DAGUES Remy 00:43:00 CAM CAPRG M 1 CAM 8093
22 REMY Vincent 00:43:04 SEM M 8109
23 BRUAND Bastien 00:43:18 SEM Vesubie trail club 06 M 8021
24 MINART Oscar 00:43:22 SEM M 8047
25 BESSON Lucile 00:43:44 SEF Endurance Shop F 2eme F 8122
26 LOUNIS Nabil 00:43:57 V1M TETE D'OR RUNNERS M 8123
27 VIOLOT Anthony 00:43:59 SEM Anthony VIOLOT M 8028
28 GRY Nicolas 00:44:06 SEM unnormaltrail M 8016
29 VIDAL Kevin 00:44:20 SEM M 8030
30 ROSE Yoann 00:44:21 SEM Rando Running Lozanne M 8087
31 VINCENT Benoit 00:44:28 SEM EAA LA ROCHE SUR FORON M 8092
32 TREMBLET Joachim 00:44:29 SEM AVOC M 8126
33 GILARD Quentin 00:44:50 SEM M 8024
34 PRALONG Sylvain 00:45:47 SEM Les alligators M 8007
35 DUPESSEY BRUN Come 00:45:52 SEM M 8099
36 MARTYN Tom 00:46:03 SEM Hunters Bog Trotters M 8006
37 BUCHY Sebastien 00:46:24 V1M M 8111
38 GRAS Louis 00:46:27 SEM M 8032
39 BERGER DE NOMAZY Romain 00:46:32 ESM M 2 ESM 8096
40 BECHET Marc 00:46:44 SEM M 8051
41 CARLIN Antonin 00:46:48 CAM GRAC M 2 CAM 8089
42 CLERC Maxime 00:46:53 SEM M 8022
43 FONTAINE Olivier 00:47:04 V1M M 8040
44 MORONVAL Arthur 00:47:13 ESM M 3 ESM 8036
45 HERMANN Nicolas 00:47:16 V1M M 8080
46 MICHELET Remi 00:47:59 SEM M 8031
47 SCHMITT Herve 00:48:11 V2M M 1 V2M 8116
48 PECCOUX Cyril 00:48:47 SEM M 8127
49 DEBRUYNE Anthony 00:48:56 SEM M 8046
50 GIET Tom 00:48:58 CAM Ski Club Seyssel M 3 CAM 8084
51 THEILE Christophe 00:49:14 SEM M 8058
52 BARGE Sylvain 00:49:19 SEM M 8034
53 ODDOUX Franck 00:49:22 V1M M 8125
54 DUHAIL Agnes 00:49:24 V1F TEAM OUTDOOR POLI F 3eme F 8015
55 GRENOT Paola 00:49:44 V2F AVEC PAYS DE BUYERES F 1 V2F 8027
56 CHRETIENNE Guillaume 00:49:46 JUM GDM st james M 1 JUM 8090
57 LOUVIER Valentin 00:49:51 SEM Valentin Louvier M 8120
58 JULLIARD Mickael 00:50:10 SEM M 8103
59 DHAM Stephen 00:50:15 SEM STEPHEN DHAM M 8065
60 HERISSON Philippe 00:50:17 V2M Xrun M 2 V2M 8044
61 JOMAND Baptiste 00:50:47 SEM Team Monts du Lyonnais M 8033
62 SONNECK Hugo 00:51:15 JUM M 2 JUM 8052
63 SAVIGNARD Vanessa 00:51:59 V1F tr ailleurs F 2 V1F 8061
64 BESSON Guillaume 00:52:13 SEM M 8128
65 FEUGUEUR Quentin 00:52:17 ESM Ski Club Agy M 8085
66 CLEMENT Valerie 00:52:21 V1F ventoux trail club F 3 V1F 8035
67 RUFFON Roland 00:52:29 V1M FFCAM Aravis M 8055
68 DIF Sarah 00:52:30 SEF F 3 SEF 8045
69 LAFARIE Marion 00:52:42 SEF F 8129
70 VISEUX Guillaume 00:53:05 SEM M 8041
71 COLLOMB Gregory 00:53:22 SEM Gregory collomb M 8070
72 PIGEON Jean Michel 00:53:23 V1M gdm st james M 8062
73 BEDARD Ludo 00:53:40 V1M M 8114
74 MAYER Doug 00:54:15 V2M Run the Alps M 3 V2M 8117
75 FERRARIS Herve 00:54:16 V1M M 8110
76 GELE Franck 00:54:21 SEM M 8050
77 RONGEAT Christopher 00:54:24 SEM Sans bornes M 8042
78 MASNEUF Alexandre 00:54:33 SEM M 8064
79 KACHNIC Noory 00:54:36 SEM M 8068
80 BEDARD Matea 00:55:09 CAF F 1 CAF 8095
81 LE ROUZIC Guillaume 00:55:12 ESM M 8097
82 DENCHE Sylvain 00:55:22 SEM M 8102
83 SIMIAND Henri 00:55:30 V1M M 8067
84 PANISSET Claude 00:56:00 V3M Claude Panisset M 1 V3M 8057
85 CHETAILLE Simon 00:56:10 SEM Les raisins du trail M 8037
86 MUSSARD Mickael 00:56:17 SEM Clermont Running Company M 8053
87 FLEURY Nicolas 00:56:22 V1M M 8043
88 TENET Xavier 00:56:29 SEM M 8108
89 LETTRY Matthieu 00:56:49 SEM Xrun M 8059
90 JOUVENOD Hubert 00:56:53 V3M M 2 V3M 8039
91 VASSEUR Romain 00:57:10 SEM M 8079
92 LE ROY Frank 00:57:15 V2M PSN Preaux M 8066
93 CAMA Dominique 00:57:28 V1M tr'ailleurs M 8121
94 PICOT Dimitri 00:58:24 SEM M 8101
95 SAINT PERON Lionel 00:59:35 V2M Handi Aventures France M 8078
96 LIZAMBART Gregory 00:59:52 SEM M 8069
97 SALINERO Stephane 01:00:25 SEM aucun M 8081
98 GRIVOT Aurelie 01:00:57 SEF F 8105
99 MANDIGOUT Stephane 01:01:22 V1M M 8060
100 SAVIGNARD Michael 01:02:20 V1M M 8013
101 DECOVEMACKER Thomas 01:02:48 SEM M 8063
102 DUPUIS Remi 01:03:21 SEM CLF Ambert M 8075
103 GALOO Marie 01:04:10 ESM M 8076
104 LUGOT Fabrice 01:05:43 SEM M 8104
105 OLIVERO Emmanuel 01:05:56 SEM M 8107
106 MILLON Sabine 01:06:32 V1F MCV ITGA SO Shop.com F 8088
107 LADUBEC Chris 01:06:57 SEM M 8106
108 BLANCHARD Christophe 01:07:02 V1M M 8118
109 COUX Philippe 01:08:57 V2M M 8115
110 SAINT DIZIER Frederic 01:09:53 V1M M 8113
111 RASQUIN Jerome 01:36:18 SEM M 8082


ReferencementCe site est listé dans la catégorie Sport : Sports extrêmes Dictionnaire
| Accueil | La Réunion  Vue du ciel | Météo | Cyclones | Volcan | Cirques de Mafate , Cilaos , Salazie | Photos Randonnées | Randonnées Réunion: Randos Espiègle , Courses montagne | Diagonale des Fous |  Marathon des Sables | Voyages Les stats du site | Fonds écran | Plan du site | Blog de runraid | Galerie photos Sport Réunion |